Terminal Aerodrome Forecast
Issued by NWS

Home | Current Version | Previous Version | Graphics & Text | Print | Product List | Glossary On
Versions: 1 2 3 4 5 6 7 8 9 10 11 12 13 14 15 16 17 18 19 20 21 22 23 24 25 26 27 28 29 30 31 32 33 34 35 36 37 38 39 40 41 42 43 44 45 46 47 48 49 50
562
FTUS43 KLOT 290312 AAB
TAFGYY
TAF AMD
KGYY 290312Z 2903/2924 36007KT 6SM BR VCSH OVC015
     FM290500 36005KT 5SM BR VCSH OVC007
     FM290800 01005KT 3SM BR VCSH OVC003
     FM291200 02005KT 2SM BR OVC003
     FM291400 04007KT P6SM OVC008
     FM291600 02010KT P6SM OVC015
     FM292200 02010KT P6SM SCT025=

USA.gov is the U.S. government's official web portal to all federal, state and local government web resources and services.